{"data":{"norad_id":59701,"intl_designator":"2024-086V","name":"STARLINK-32093","alt_names":[],"object_type":"PAYLOAD","status":"ACTIVE","operator":null,"country":"US","launch_date":"2024-05-08","launch_site_code":"AFETR","launch_vehicle":null,"mission":null,"orbit_class":"UNKNOWN","rcs_meters":null,"size_class":null,"mass_kg":null,"dimensions":null,"purposes":["comms"],"wikipedia_slug":null,"has_3d_model":false,"image_url":null,"decayed_at":null,"tle_current":{"epoch":"2026-09-21T19:10:04.513440Z","epoch_age_seconds":59129,"freshness":"FRESH","line1":"1 59701U 24086V   26264.79866335  .00000731  00000+0  36088-4 0  9998","line2":"2 59701  43.0020  32.4473 0000997 264.4539  95.6199 15.27580145134100","mean_motion":15.27580145,"eccentricity":9.97e-5,"inclination_deg":43.002,"raan_deg":32.4473,"arg_perigee_deg":264.4539,"mean_anomaly_deg":95.6199,"bstar":3.6088e-5,"rev_number":13410,"period_min":94.266739765723,"perigee_km":482.36460164704,"apogee_km":483.73272206801,"semimajor_km":6861.1856618575,"source":"CELESTRAK","updated_at":"2026-09-22T09:00:49.056137Z"}}}